Regional Weather Roundup
Issued by NWS

Home | Current Version | Previous Version | Text Only | Print | Product List | Glossary Off
Versions: 1 2 3 4 5 6 7 8 9 10 11 12 13 14 15 16 17 18 19 20 21 22 23 24 25 26 27 28 29 30 31 32 33 34 35 36 37 38 39 40 41 42 43 44 45 46 47 48 49 50

000
ASUS45 KBOI 270210
RWRID
WEATHER ROUNDUP FOR IDAHO
NATIONAL WEATHER SERVICE BOISE ID
700 PM MST WED NOV 26 2014

NOTE: "FAIR" INDICATES FEW OR NO CLOUDS BELOW 12000 FEET
WITH NO SIGNIFICANT WEATHER AND/OR OBSTRUCTIONS TO VISIBILITY

IDZ012-014-270300-
SOUTHWEST IDAHO


CITY           SKY/WX    TMP DP  RH WIND       PRES   REMARKS
BOISE          CLOUDY    48  39  71 SE6       30.21F
CALDWELL       NOT AVBL
MOUNTAIN HOME  MOCLDY    43  43  99 E2        30.22F
$$

IDZ016-017-270300-
SOUTHCENTRAL IDAHO


CITY           SKY/WX    TMP DP  RH WIND       PRES   REMARKS
BURLEY         PTCLDY    40  34  79 SE3       30.27S
JEROME         CLEAR     44  34  67 E6        30.26F
TWIN FALLS     CLEAR     44  34  67 S7        30.26F
$$

IDZ019>023-270300-
SOUTHEAST IDAHO


CITY           SKY/WX    TMP DP  RH WIND       PRES   REMARKS
IDAHO FALLS    CLOUDY    45  33  63 S15       30.26F
POCATELLO      CLEAR     44  34  67 SW9       30.29S
REXBURG        CLOUDY    45  32  60 S15       30.26F
$$

IDZ006-010-011-018-031-032-270300-
CENTRAL IDAHO MOUNTAINS


CITY           SKY/WX    TMP DP  RH WIND       PRES   REMARKS
MCCALL         CLOUDY    35  34  96 CALM      30.22F FOG
HAILEY         CLEAR     37  32  81 NW5       30.29S WCI  34
STANLEY          N/A     34  26  72 VRB3      30.28F
SALMON         CLOUDY    30  28  93 E5        30.18F VSB<1/4 WCI  25
CHALLIS        MOCLDY    38  28  67 CALM      30.20F
$$

IDZ002-004-006-007-026-270300-
NORTHERN IDAHO


CITY           SKY/WX    TMP DP  RH WIND       PRES   REMARKS
LEWISTON       CLOUDY    44  42  93 CALM      30.09F
LOWELL           N/A     41  40  96 CALM      30.19S
COEUR D`ALENE  CLOUDY    37  37 100 CALM      30.05F
MULLAN PASS    CLOUDY    34  34 100 VRB7      30.06F FOG     WCI  28
$$


USA.gov is the U.S. government's official web portal to all federal, state and local government web resources and services.